Regional Weather Roundup
Issued by NWS Green Bay, WI

Home | Current Version | Previous Version | Text Only | Print | Product List | Glossary On
Versions: 1 2 3 4 5 6 7 8 9 10 11 12 13 14 15 16 17 18 19 20 21 22 23 24 25 26 27 28 29 30 31 32 33 34 35 36 37 38 39 40 41 42 43 44 45 46 47 48 49 50
000
ASUS43 KGRB 021310
RWRGRB

NORTH-CENTRAL AND NORTHEAST WISCONSIN REGIONAL WEATHER ROUNDUP
NATIONAL WEATHER SERVICE GREEN BAY WI
700 AM CST MON MAR 02 2015

WIZ005-009-010>012-018-019-021400-
NORTH CENTRAL WISCONSIN

CITY           SKY/WX    TMP DP  RH WIND       PRES   REMARKS
IRONWOOD       CLEAR      9   7  92 W8        30.33S WCI  -4
MANITOWISH WTR CLEAR      4   1  88 W5        30.33R FOG     WCI  -5
ARBOR VITAE    PTCLDY     9   4  80 CALM      30.33S
EAGLE RIVER    CLOUDY    12   4  70 W6        30.32R WCI   3
LAND O LAKES   FLURRIES  14   6  69 NW5       30.31R WCI   7
RHINELANDER    PTCLDY     8   2  76 W6        30.34R WCI  -2
PHILLIPS       MOCLDY    -2  -5  88 CALM      30.36S
ANTIGO         CLEAR      0  -2  89 W3        30.36R
TOMAHAWK       PTCLDY     5   2  87 CALM      30.37S
MERRILL        CLEAR      4   1  89 CALM      30.39R
$$

WIZ013-073-021400-
NORTHEAST WISCONSIN

CITY           SKY/WX    TMP DP  RH WIND       PRES   REMARKS
IRON MOUNTAIN  PTCLDY     8   3  80 W6        30.33R WCI  -2
MARINETTE      CLEAR      9   7  92 CALM      30.39R
OCONTO         CLEAR      8   4  84 W5        30.42R WCI   0
$$

WIZ017-030-035>037-045-021400-
CENTRAL WISCONSIN

CITY           SKY/WX    TMP DP  RH WIND       PRES   REMARKS
MEDFORD          N/A      2   0  88 W6        30.39R WCI  -9
WAUSAU         CLEAR      8   3  80 N3        30.39R
MOSINEE          N/A      9   5  85 NW5       30.41R WCI   0
MARSHFIELD     PTCLDY     1  -4  79 NW7       30.41R WCI -12
WISC RAPIDS      N/A      8   3  80 NW6       30.44S WCI  -2
STEVENS POINT  CLEAR      8   4  82 CALM      30.43R
WAUPACA        CLEAR     13   7  75 NW6       30.44R WCI   4
SHAWANO        CLEAR     13   6  76 W5        30.43R WCI   5
CLINTONVILLE   CLEAR     10   5  79 W8        30.44R WCI  -1
$$

WIZ038-039-048-051-021400-
FOX VALLEY

CITY           SKY/WX    TMP DP  RH WIND       PRES   REMARKS
NWS GREEN BAY  CLEAR     12   6  77 W8        30.43R WCI   0
APPLETON       NOT AVBL
OSHKOSH        CLEAR     12   5  73 NW8       30.44R WCI   0
FOND DU LAC    CLEAR     12   5  73 NW9       30.44R WCI   0
$$

WIZ022-050-052-021400-
EAST CENTRAL WISCONSIN

CITY           SKY/WX    TMP DP  RH WIND       PRES   REMARKS
STURGEON BAY   CLEAR     12   5  73 W7        30.42R WCI   2
MANITOWOC      CLEAR     14   9  80 NW9       30.43R WCI   2
SHEBOYGAN      CLEAR     13   6  74 NW6       30.43R WCI   4
$$

LMZ563-521-522-541>543-021400-
LAKESHORE

STATION/POSITION TIME  TEMP    WIND        PRES    VSBY  WAVE
                       AIR SEA DIR/SP/G                  HT/PER
                 (UTC) (F)     (DEG/KT/KT) (MB)    (MI)  (FT/S)
SHEBOYGAN LKSHOR 1300   16     290/ 12/ 14 1031.9R
KEWAUNEE LKSHORE 1300   13     300/  5/  6 1028.9R
NORTHPORT PIER   1300   17     290/  9/ 13 1028.8S
SISTER BAY LKSHO 1200   11     290/ 10/ 11   N/A
STURGEON BAY CG  1300    8     270/  3     1033.1      6   1
CHAMBERS ISLAND  1300   12     230/  4/  7 1029.1R
MENOMINEE LKSHOR 1300   13     250/  6     1030.1R
$$



USA.gov is the U.S. government's official web portal to all federal, state and local government web resources and services.